Total_Precipitation_Accumulation
1.58 1.62 1.66 1.47 1.22 1.27 1.39 1.38 1.30 1.52 1.32 1.13 0.98 0.88 1.23 1.30 1.48 2.02 1.69 1.44 2.39 2.78 1.08 0.77 0.41 0.43 0.45 0.52 0.77 0.71 1.14 1.16 1.03 1.06 0.85 0.84 0.84 0.41 0.66 1.12 0.65 0.73 0.68 0.66 0.84 1.15 0.82 0.11 0.28 0.60 0.79 0.43 0.29 0.37
1.57 1.67 1.34 1.18 0.93 1.16 1.37 1.25 1.11 1.04 1.55 1.22 1.00 0.94 1.35 1.61 1.63 1.94 1.91 1.35 1.82 2.63 1.44 0.75 0.43 0.26 0.17 0.18 0.29 0.53 0.75 0.81 0.91 0.77 0.54 0.55 0.62 0.56 0.63 0.83 0.83 1.39 1.17 1.24 0.92 0.88 0.54 0.30 0.41 0.48 0.40 0.41 0.44 0.59
1.39 1.63 1.28 0.99 0.93 0.97 1.18 1.13 1.09 0.91 1.11 1.17 0.98 1.01 1.61 1.92 1.72 1.89 1.76 1.35 2.79 2.92 1.80 0.89 0.53 0.20 0.09 0.08 0.12 0.53 0.32 0.63 1.00 0.87 1.09 0.81 0.70 0.43 0.46 0.71 0.69 0.57 0.53 0.95 0.90 0.67 0.39 0.53 0.44 0.25 0.25 0.28 0.30 0.31
1.41 1.70 1.26 0.96 1.13 1.03 1.01 0.71 0.84 0.98 0.90 1.06 1.24 1.31 1.67 1.80 1.60 2.11 2.04 1.71 2.95 2.01 1.84 1.18 0.57 0.30 0.22 0.10 0.17 0.20 0.20 0.31 0.59 0.76 1.05 1.02 0.71 0.61 0.56 0.62 0.55 0.47 0.66 0.60 0.92 0.94 0.69 0.65 0.93 0.59 0.40 0.30 0.31 0.32
1.45 1.32 1.10 1.24 1.20 0.82 0.76 0.47 0.52 0.78 0.68 0.92 1.09 1.31 1.61 1.77 1.76 2.69 2.56 2.24 2.10 1.64 1.54 1.38 0.46 0.43 0.30 0.22 0.18 0.39 0.37 0.42 0.78 0.81 0.80 0.56 0.47 0.78 0.75 0.72 0.47 0.39 0.95 0.92 0.87 1.09 1.21 1.31 0.85 0.66 0.72 0.58 0.43 0.21
1.41 0.99 1.32 1.58 1.09 0.73 0.50 0.46 0.51 0.57 0.62 0.79 1.01 1.27 1.50 1.72 2.85 4.64 5.92 3.54 1.90 1.79 2.00 1.63 0.84 0.44 0.46 0.38 0.45 0.35 0.59 0.76 0.98 1.21 0.69 0.36 0.40 0.98 0.88 0.99 0.65 0.45 0.45 0.63 0.94 1.02 1.06 0.95 0.61 0.37 0.26 0.31 0.32 0.22
1.32 1.45 1.76 1.56 0.88 0.49 0.38 0.39 0.47 0.57 0.75 0.90 1.05 1.20 1.32 1.72 2.35 3.31 2.80 1.68 1.29 1.90 2.72 1.92 1.34 0.80 0.73 0.82 0.93 0.97 0.83 1.20 1.57 1.47 0.88 0.49 0.42 0.66 0.87 0.88 0.63 0.40 0.47 0.47 0.65 0.59 0.41 0.33 0.27 0.15 0.06 0.04 0.02 0.02
1.78 1.83 1.46 1.01 0.59 0.50 0.39 0.46 0.57 0.74 0.86 1.01 1.30 1.49 1.77 2.03 2.51 2.15 1.33 1.38 1.29 2.11 1.91 1.51 1.45 1.58 1.18 1.36 1.31 1.17 1.33 1.42 1.51 1.46 0.95 0.62 0.70 0.95 0.99 0.65 0.37 0.27 0.39 0.34 0.34 0.25 0.18 0.12 0.05 0.03 0.01 0.01 0.01 0.01
2.08 1.47 0.94 0.80 0.62 0.51 0.45 0.58 0.73 1.01 1.08 1.60 2.01 2.67 3.72 3.12 2.77 1.88 1.56 2.04 1.70 1.65 1.33 0.69 1.05 2.28 2.09 1.81 1.40 1.15 1.51 1.65 1.25 0.92 0.71 0.85 1.16 1.21 0.76 0.34 0.30 0.24 0.28 0.31 0.19 0.06 0.03 0.04 0.03 0.02 0.00 0.01 0.01 0.02
1.39 0.99 0.66 0.62 0.58 0.69 0.77 0.92 1.18 1.36 1.78 2.14 2.56 3.40 3.56 2.24 1.90 2.13 3.07 3.34 2.99 1.67 1.06 0.67 0.57 1.49 2.16 2.10 1.64 1.37 1.13 1.06 1.04 0.78 0.84 1.18 0.96 0.50 0.21 0.20 0.19 0.14 0.17 0.18 0.16 0.11 0.06 0.05 0.03 0.02 0.03 0.04 0.05 0.09
0.78 0.70 0.59 0.60 0.61 0.65 0.79 0.93 1.57 1.86 1.88 1.71 2.06 2.76 2.31 2.28 2.26 2.50 2.42 1.81 1.54 1.03 0.42 0.45 0.56 1.23 1.40 2.05 1.55 1.15 1.27 0.86 0.66 0.77 0.77 1.07 0.62 0.36 0.12 0.08 0.09 0.14 0.18 0.22 0.24 0.24 0.23 0.19 0.14 0.09 0.13 0.16 0.15 0.15
0.82 0.66 0.64 0.63 0.63 0.75 0.88 1.13 1.48 0.93 1.09 0.99 1.59 1.91 2.46 2.32 1.94 1.50 1.17 0.84 0.63 0.48 0.30 0.41 0.71 1.41 1.26 1.62 1.63 1.37 1.22 1.02 1.04 0.73 0.58 0.81 0.57 0.27 0.18 0.15 0.12 0.15 0.21 0.28 0.26 0.24 0.26 0.25 0.25 0.21 0.21 0.20 0.21 0.25
0.63 0.65 0.72 0.60 0.61 0.69 0.77 1.00 1.03 0.95 1.14 1.33 1.10 1.18 1.39 1.12 1.14 0.77 0.53 0.49 0.53 0.33 0.34 0.46 0.93 1.56 1.25 1.63 1.46 1.05 1.52 1.24 0.95 1.16 0.80 0.56 0.26 0.20 0.19 0.21 0.24 0.25 0.24 0.29 0.33 0.33 0.29 0.29 0.27 0.26 0.29 0.38 0.40 0.54
0.50 0.58 0.77 0.79 0.86 0.95 1.21 1.45 1.79 1.59 1.29 1.03 0.88 0.77 1.02 0.71 0.62 0.56 0.58 0.55 0.34 0.27 0.32 0.80 0.99 1.25 1.30 1.49 1.19 0.83 1.10 1.07 1.00 0.86 0.69 0.44 0.38 0.35 0.31 0.30 0.27 0.38 0.41 0.43 0.50 0.48 0.53 0.58 0.74 0.90 0.96 1.05 0.86 0.96
0.55 0.79 1.04 1.06 1.12 1.20 1.35 1.55 1.53 0.98 0.71 0.77 0.72 0.78 0.62 0.77 0.69 0.71 0.59 0.42 0.31 0.39 0.55 0.90 1.03 0.95 0.90 1.50 0.88 0.70 0.74 0.83 0.77 0.93 0.60 0.63 0.58 0.54 0.56 0.61 0.64 0.74 0.81 0.89 0.97 0.90 0.99 0.96 0.82 1.06 1.19 1.08 0.86 0.85
0.59 1.23 1.24 1.14 1.17 1.09 1.25 1.19 1.03 0.61 0.55 0.78 0.94 0.87 0.72 0.72 0.76 0.68 0.57 0.47 0.45 0.61 0.72 1.01 1.06 0.75 0.67 0.47 0.48 0.49 0.59 0.94 0.68 0.56 0.67 0.66 0.73 0.86 0.91 0.95 1.03 1.05 1.00 0.99 0.97 0.86 0.85 0.80 0.70 0.78 0.81 0.75 0.72 0.55
0.86 1.43 1.26 1.02 0.89 0.87 0.94 0.71 0.55 0.50 0.68 0.72 1.02 1.16 1.03 0.86 0.96 0.94 0.78 0.63 0.59 0.72 0.79 0.64 0.68 0.67 0.61 0.27 0.25 0.35 0.65 0.89 0.90 0.94 0.89 0.86 0.93 1.06 1.08 1.01 0.98 0.82 0.72 0.69 0.64 0.61 0.62 0.60 0.42 0.30 0.34 0.43 0.35 0.32
0.73 0.69 0.68 0.60 0.55 0.67 0.47 0.23 0.34 0.31 0.46 0.83 0.87 1.14 0.82 1.01 1.00 0.86 0.83 0.73 0.75 0.67 0.64 0.66 0.67 0.47 0.54 0.51 0.64 0.79 0.91 1.06 1.03 0.93 0.95 1.05 0.96 0.96 0.94 0.82 0.84 0.67 0.53 0.51 0.43 0.41 0.39 0.31 0.23 0.27 0.25 0.22 0.18 0.21
0.78 0.63 0.58 0.40 0.33 0.29 0.24 0.15 0.14 0.23 0.68 0.73 0.76 0.60 0.51 0.66 0.63 0.62 0.49 0.45 0.31 0.20 0.18 0.18 0.26 0.47 0.69 0.79 0.83 0.90 0.89 0.68 0.69 0.70 0.74 0.84 0.82 0.80 0.80 0.72 0.65 0.58 0.43 0.36 0.25 0.24 0.28 0.26 0.28 0.25 0.21 0.16 0.18 0.21
0.84 0.64 0.52 0.36 0.33 0.31 0.19 0.14 0.03 0.15 0.50 0.59 0.55 0.30 0.29 0.42 0.30 0.16 0.09 0.05 0.03 0.04 0.12 0.30 0.71 0.89 0.83 0.92 0.71 0.67 0.65 0.56 0.42 0.40 0.57 0.69 0.69 0.58 0.61 0.48 0.44 0.38 0.29 0.29 0.28 0.25 0.22 0.22 0.23 0.19 0.18 0.17 0.16 0.17
0.80 0.50 0.21 0.18 0.24 0.11 0.14 0.10 0.13 0.15 0.27 0.36 0.30 0.13 0.22 0.10 0.08 0.08 0.06 0.02 0.08 0.21 0.59 0.86 0.83 0.93 0.67 0.65 0.58 0.50 0.55 0.49 0.51 0.32 0.34 0.42 0.48 0.31 0.36 0.40 0.31 0.25 0.22 0.27 0.25 0.27 0.24 0.20 0.18 0.14 0.14 0.16 0.16 0.14
0.35 0.17 0.14 0.17 0.14 0.03 0.11 0.03 0.09 0.09 0.06 0.11 0.09 0.05 0.08 0.08 0.07 0.04 0.04 0.10 0.40 0.70 0.71 0.60 0.57 0.43 0.30 0.35 0.36 0.27 0.35 0.28 0.31 0.35 0.36 0.32 0.35 0.34 0.39 0.41 0.28 0.30 0.30 0.27 0.22 0.20 0.17 0.14 0.11 0.10 0.10 0.12 0.09 0.08
0.06 0.07 0.07 0.06 0.16 0.06 0.14 0.08 0.07 0.09 0.05 0.06 0.03 0.05 0.05 0.05 0.04 0.01 0.09 0.22 0.62 0.79 0.51 0.26 0.26 0.20 0.25 0.33 0.20 0.20 0.22 0.19 0.25 0.33 0.36 0.34 0.34 0.33 0.27 0.25 0.22 0.18 0.15 0.12 0.07 0.05 0.06 0.03 0.03 0.06 0.08 0.09 0.10 0.11
0.06 0.08 0.08 0.11 0.10 0.08 0.09 0.09 0.01 0.02 0.03 0.03 0.02 0.06 0.07 0.04 0.02 0.03 0.13 0.31 0.57 0.45 0.27 0.29 0.19 0.17 0.19 0.19 0.21 0.27 0.32 0.25 0.22 0.24 0.24 0.16 0.15 0.15 0.08 0.07 0.05 0.04 0.03 0.02 0.00 0.04 0.03 0.03 0.03 0.05 0.06 0.06 0.09 0.08
0.16 0.10 0.11 0.15 0.08 0.02 0.03 0.05 0.03 0.02 0.04 0.03 0.04 0.07 0.05 0.03 0.04 0.05 0.10 0.33 0.30 0.32 0.33 0.31 0.24 0.21 0.24 0.29 0.29 0.25 0.17 0.10 0.08 0.09 0.11 0.06 0.05 0.05 0.04 0.02 0.02 0.02 0.01 0.04 0.05 0.06 0.06 0.04 0.05 0.05 0.05 0.06 0.06 0.07
0.19 0.12 0.03 0.06 0.05 0.03 0.03 0.04 0.03 0.03 0.03 0.05 0.07 0.08 0.06 0.06 0.06 0.13 0.21 0.29 0.24 0.31 0.37 0.37 0.32 0.24 0.23 0.17 0.14 0.11 0.08 0.03 0.01 0.01 0.04 0.01 0.01 0.02 0.02 0.03 0.06 0.08 0.02 0.03 0.04 0.05 0.07 0.05 0.05 0.04 0.07 0.08 0.07 0.09
0.07 0.10 0.04 0.04 0.06 0.04 0.04 0.04 0.03 0.04 0.07 0.09 0.10 0.08 0.09 0.12 0.13 0.27 0.36 0.27 0.27 0.32 0.27 0.25 0.17 0.14 0.14 0.11 0.09 0.07 0.03 0.01 0.01 0.00 0.01 0.00 0.00 0.01 0.01 0.02 0.03 0.04 0.02 0.04 0.03 0.02 0.03 0.06 0.07 0.07 0.08 0.10 0.10 0.10
0.03 0.02 0.04 0.04 0.04 0.05 0.08 0.07 0.06 0.10 0.14 0.11 0.09 0.07 0.06 0.11 0.34 0.41 0.38 0.38 0.29 0.18 0.15 0.15 0.14 0.07 0.05 0.07 0.09 0.07 0.06 0.05 0.03 0.02 0.03 0.06 0.06 0.04 0.02 0.02 0.01 0.01 0.02 0.03 0.03 0.03 0.04 0.05 0.06 0.07 0.07 0.08 0.08 0.10
0.04 0.02 0.01 0.03 0.06 0.06 0.11 0.14 0.19 0.16 0.13 0.10 0.09 0.13 0.14 0.23 0.36 0.34 0.34 0.30 0.25 0.15 0.11 0.12 0.21 0.11 0.09 0.08 0.06 0.04 0.02 0.02 0.03 0.04 0.04 0.07 0.11 0.11 0.06 0.05 0.04 0.03 0.05 0.08 0.10 0.06 0.07 0.08 0.08 0.06 0.06 0.08 0.11 0.16
0.02 0.02 0.02 0.01 0.04 0.12 0.24 0.17 0.22 0.15 0.06 0.06 0.08 0.13 0.16 0.42 0.63 0.40 0.29 0.26 0.22 0.20 0.16 0.12 0.15 0.11 0.11 0.10 0.10 0.11 0.09 0.04 0.03 0.02 0.04 0.04 0.04 0.06 0.09 0.08 0.06 0.05 0.07 0.08 0.11 0.17 0.14 0.11 0.12 0.13 0.13 0.13 0.13 0.11
0.02 0.02 0.03 0.03 0.12 0.21 0.19 0.12 0.11 0.12 0.09 0.09 0.09 0.13 0.19 0.34 0.35 0.31 0.26 0.27 0.21 0.16 0.11 0.13 0.12 0.09 0.06 0.05 0.04 0.04 0.09 0.07 0.04 0.02 0.03 0.02 0.03 0.05 0.06 0.06 0.06 0.06 0.06 0.05 0.05 0.05 0.05 0.05 0.06 0.06 0.06 0.05 0.05 0.04
0.08 0.10 0.06 0.07 0.20 0.20 0.20 0.19 0.13 0.19 0.16 0.12 0.13 0.12 0.16 0.15 0.15 0.18 0.18 0.23 0.23 0.18 0.14 0.10 0.11 0.11 0.05 0.04 0.04 0.04 0.02 0.03 0.03 0.02 0.02 0.02 0.03 0.05 0.06 0.07 0.07 0.06 0.05 0.05 0.05 0.05 0.04 0.04 0.04 0.04 0.04 0.04 0.03 0.03
0.23 0.23 0.19 0.16 0.16 0.16 0.17 0.21 0.20 0.16 0.12 0.11 0.15 0.15 0.15 0.14 0.15 0.20 0.16 0.19 0.28 0.20 0.14 0.14 0.12 0.11 0.09 0.08 0.08 0.07 0.06 0.06 0.05 0.03 0.03 0.03 0.03 0.04 0.04 0.06 0.06 0.05 0.04 0.05 0.06 0.06 0.06 0.06 0.06 0.05 0.05 0.04 0.04 0.05